Weather History for Victoria, TX

Change the Weather History Date:

Thursday, April 25, 2013

  Actual Average Record
Temperature  
Mean Temperature 65 °F 72 °F  
Max Temperature 70 °F 82 °F 96 °F (1932)
Min Temperature 60 °F 62 °F 45 °F (1910)
Degree Days  
Heating Degree Days 0 0  
Month to date heating degree days 50 29  
Since 1 July heating degree days 1015 1247  
Cooling Degree Days 0 7  
Month to date cooling degree days 104 136  
Year to date cooling degree days 236 248  
Growing Degree Days 15 (Base 50)    
Moisture  
Dew Point 49 °F    
Average Humidity 66    
Maximum Humidity 87    
Minimum Humidity 44    
Precipitation  
Precipitation 0.00 in 0.10 in 2.75 in (1966)
Month to date precipitation 0.45 2.25  
Year to date precipitation 4.86 9.62  
Snow  
Snow 0.00 in - - ()
Month to date snowfall 0.0  
Since 1 July snowfall 0.0  
Snow Depth 0.00 in    
Sea Level Pressure  
Sea Level Pressure 30.22 in    
Wind  
Wind Speed 9 mph (ENE)    
Max Wind Speed 16 mph    
Max Gust Speed 20 mph    
Visibility 10 miles    
Events      
T = Trace of Precipitation, MM = Missing Value Source: NWS Daily Summary

Daily Weather History Graph

Daily Weather History Graph

Search for Another Location

Airport:

Trip Planner

Search our weather history database for the weather conditions in past years. The results will help you decide how hot, cold, wet, or windy it might be!

Date:

Astronomy

Apr. 25, 2013 Rise Set
Actual Time 6:51 AM CDT 7:59 PM CDT
Civil Twilight 6:26 AM CDT 8:24 PM CDT
Nautical Twilight 5:57 AM CDT 8:54 PM CDT
Astronomical Twilight 5:27 AM CDT 9:24 PM CDT
Moon 8:11 PM CDT 6:35 AM CDT
Length of Visible Light 13h 57m
Length of Day
13h 08m
Full, 100% of the Moon is Illuminated
Apr 25
Full
Apr 25
Full
May 2
Last Quarter
May 9
New
May 17
First Quarter

Hourly Weather History & Observations

Time (CDT) Temp. Dew Point Humidity Pressure Visibility Wind Dir Wind Speed Gust Speed Precip Events Conditions
12:51 AM 64.0 °F 44.1 °F 48% 30.20 in 10.0 mi North 9.2 mph - N/A   Overcast
1:51 AM 63.0 °F 44.1 °F 50% 30.20 in 10.0 mi North 6.9 mph - N/A   Overcast
2:51 AM 63.0 °F 45.0 °F 52% 30.20 in 10.0 mi North 5.8 mph - N/A   Overcast
3:51 AM 61.0 °F 46.9 °F 60% 30.20 in 10.0 mi North 6.9 mph - N/A   Overcast
4:51 AM 61.0 °F 46.9 °F 60% 30.20 in 10.0 mi North 6.9 mph - N/A   Overcast
5:51 AM 60.1 °F 46.0 °F 60% 30.20 in 10.0 mi North 11.5 mph - N/A   Overcast
6:51 AM 60.1 °F 46.0 °F 60% 30.22 in 10.0 mi NNE 8.1 mph - N/A   Overcast
7:51 AM 60.1 °F 46.0 °F 60% 30.24 in 10.0 mi NNE 15.0 mph - N/A   Overcast
8:51 AM 61.0 °F 46.9 °F 60% 30.27 in 10.0 mi NNE 10.4 mph - N/A   Overcast
9:51 AM 62.1 °F 46.9 °F 58% 30.29 in 10.0 mi NE 12.7 mph - N/A   Overcast
10:51 AM 63.0 °F 46.9 °F 56% 30.29 in 10.0 mi ENE 12.7 mph - N/A   Overcast
11:51 AM 66.0 °F 48.0 °F 52% 30.30 in 10.0 mi ENE 10.4 mph - N/A   Overcast
12:51 PM 70.0 °F 48.0 °F 46% 30.27 in 10.0 mi East 12.7 mph 18.4 mph N/A   Overcast
1:51 PM 69.1 °F 46.9 °F 45% 30.25 in 10.0 mi NE 9.2 mph - N/A   Overcast
2:51 PM 66.9 °F 45.0 °F 45% 30.23 in 10.0 mi ENE 9.2 mph - N/A   Overcast
3:51 PM 66.0 °F 46.0 °F 48% 30.21 in 10.0 mi ENE 11.5 mph - N/A   Overcast
4:51 PM 66.0 °F 46.9 °F 50% 30.20 in 10.0 mi East 10.4 mph - N/A   Overcast
5:41 PM 66.2 °F 48.2 °F 52% 30.20 in 10.0 mi ENE 10.4 mph - N/A   Overcast
5:51 PM 66.0 °F 46.9 °F 50% 30.19 in 10.0 mi ENE 10.4 mph - N/A   Overcast
6:51 PM 64.9 °F 48.9 °F 56% 30.19 in 10.0 mi East 9.2 mph - N/A   Overcast
7:51 PM 64.9 °F 50.0 °F 58% 30.18 in 10.0 mi East 6.9 mph - N/A   Overcast
8:51 PM 64.9 °F 51.1 °F 61% 30.18 in 10.0 mi East 3.5 mph - N/A   Overcast
9:09 PM 64.4 °F 51.8 °F 64% 30.19 in 10.0 mi East 4.6 mph - N/A   Overcast
9:42 PM 64.4 °F 53.6 °F 68% 30.20 in 10.0 mi East 6.9 mph - N/A   Overcast
9:51 PM 64.9 °F 53.1 °F 65% 30.20 in 10.0 mi East 4.6 mph - N/A   Overcast
10:30 PM 64.4 °F 55.4 °F 73% 30.21 in 10.0 mi East 5.8 mph - N/A   Overcast
10:51 PM 64.9 °F 57.0 °F 75% 30.21 in 10.0 mi East 8.1 mph - N/A   Overcast
11:48 PM 64.4 °F 60.8 °F 88% 30.21 in 10.0 mi East 10.4 mph - N/A   Overcast
11:51 PM 64.0 °F 60.1 °F 87% 30.20 in 10.0 mi ESE 11.5 mph - N/A   Overcast